Tracking 29892 objects as of 21-Nov-2024
HD Live streaming from Space Station
objects crossing your sky now

ATLAS CENTAUR R/B

Track ATLAS CENTAUR R/B now!
10-day predictions


NORAD ID: 12497
Int'l Code: 1981-050B
Perigee: 316.0 km
Apogee: 7,021.4 km
Inclination: 24.0 °
Period: 166.9 minutes
Semi major axis: 10039 km
RCS: 15.9494 m2 (large)
Launch date: May 23, 1981
Source: United States (US)
Launch site: AIR FORCE EASTERN TEST RANGE (AFETR)

Note: This is a ROCKET BODY
Your satellite tracking list
Your tracking list is empty




NASA's NSSDC Master Catalog

Two Line Element Set (TLE):
1 12497U 81050B   24325.39262690  .00015557  00000-0  13124-2 0  9996
2 12497  23.9549  69.5763 3339449 306.6144  27.0715  8.63022210126861
Source of the keplerian elements: AFSPC